Time,TemperatureF,DewpointF,PressureIn,WindDirection,WindDirectionDegrees,WindSpeedMPH,WindSpeedGustMPH,Humidity,HourlyPrecipIn,Conditions,Clouds,dailyrainin,SoftwareType,DateUTC
2013-01-14 00:02:00,1.6,-2.6,30.48,SW,216,2.0,4.0,82,0.00,,,0.00,meteohub,2013-01-14 07:02:00,
2013-01-14 00:12:00,1.8,-2.4,30.48,SW,216,2.0,4.0,82,0.00,,,0.00,meteohub,2013-01-14 07:12:00,
2013-01-14 00:22:00,1.8,-2.2,30.48,SW,216,1.0,3.0,83,0.00,,,0.00,meteohub,2013-01-14 07:22:00,
2013-01-14 00:32:00,1.9,-2.0,30.48,SW,216,0.0,3.0,83,0.00,,,0.00,meteohub,2013-01-14 07:32:00,
2013-01-14 00:42:00,1.9,-2.2,30.48,SW,216,0.0,2.0,82,0.00,,,0.00,meteohub,2013-01-14 07:42:00,
2013-01-14 00:52:00,1.9,-2.2,30.48,SW,216,0.0,2.0,82,0.00,,,0.00,meteohub,2013-01-14 07:52:00,
2013-01-14 01:02:00,1.9,-2.2,30.48,SW,216,1.0,2.0,82,0.00,,,0.00,meteohub,2013-01-14 08:02:00,
2013-01-14 01:12:00,1.8,-2.4,30.48,SW,216,0.0,3.0,82,0.00,,,0.00,meteohub,2013-01-14 08:12:00,
2013-01-14 01:22:00,1.8,-2.4,30.48,SW,216,1.0,2.0,82,0.00,,,0.00,meteohub,2013-01-14 08:22:00,
2013-01-14 01:32:00,1.8,-2.4,30.48,SW,216,1.0,3.0,82,0.00,,,0.00,meteohub,2013-01-14 08:32:00,
2013-01-14 01:42:00,1.6,-2.6,30.48,SW,216,0.0,2.0,82,0.00,,,0.00,meteohub,2013-01-14 08:42:00,
2013-01-14 01:52:00,1.4,-2.7,30.48,SW,216,1.0,2.0,82,0.00,,,0.00,meteohub,2013-01-14 08:52:00,
2013-01-14 02:02:00,1.2,-2.9,30.48,SW,216,0.0,2.0,82,0.00,,,0.00,meteohub,2013-01-14 09:02:00,
2013-01-14 02:12:00,0.9,-3.6,30.48,SW,216,0.0,2.0,81,0.00,,,0.00,meteohub,2013-01-14 09:12:00,
2013-01-14 02:22:00,0.7,-3.8,30.48,SW,216,1.0,1.0,81,0.00,,,0.00,meteohub,2013-01-14 09:22:00,
2013-01-14 02:32:00,0.7,-3.3,30.48,SW,216,0.0,3.0,83,0.00,,,0.00,meteohub,2013-01-14 09:32:00,
2013-01-14 02:42:00,0.5,-3.6,30.48,SW,216,0.0,1.0,82,0.00,,,0.00,meteohub,2013-01-14 09:42:00,
2013-01-14 02:52:00,0.3,-3.8,30.48,SW,216,2.0,2.0,82,0.00,,,0.00,meteohub,2013-01-14 09:52:00,
2013-01-14 03:02:00,0.1,-4.0,30.48,SW,216,1.0,2.0,82,0.00,,,0.00,meteohub,2013-01-14 10:02:00,
2013-01-14 03:12:00,0.0,-4.2,30.48,SW,216,1.0,2.0,82,0.00,,,0.00,meteohub,2013-01-14 10:12:00,
2013-01-14 03:22:00,0.0,-4.0,30.48,SW,216,0.0,3.0,83,0.00,,,0.00,meteohub,2013-01-14 10:22:00,
2013-01-14 03:32:00,-0.2,-4.2,30.48,SW,216,0.0,3.0,83,0.00,,,0.00,meteohub,2013-01-14 10:32:00,
2013-01-14 03:42:00,-0.4,-4.5,30.48,SW,216,0.0,1.0,82,0.00,,,0.00,meteohub,2013-01-14 10:42:00,
2013-01-14 03:52:00,-0.8,-4.9,30.48,SW,216,0.0,0.0,82,0.00,,,0.00,meteohub,2013-01-14 10:52:00,
2013-01-14 04:02:00,-0.9,-5.1,30.48,SW,216,0.0,0.0,82,0.00,,,0.00,meteohub,2013-01-14 11:02:00,
2013-01-14 04:12:00,-1.1,-5.3,30.48,SW,216,0.0,0.0,82,0.00,,,0.00,meteohub,2013-01-14 11:12:00,
2013-01-14 04:22:00,-1.1,-5.1,30.47,SW,216,0.0,0.0,83,0.00,,,0.00,meteohub,2013-01-14 11:22:00,
2013-01-14 04:32:00,-1.3,-5.4,30.47,SW,216,0.0,0.0,82,0.00,,,0.00,meteohub,2013-01-14 11:32:00,
2013-01-14 04:42:00,-1.5,-5.6,30.47,SW,216,0.0,0.0,82,0.00,,,0.00,meteohub,2013-01-14 11:42:00,
2013-01-14 04:52:00,-1.8,-6.2,30.46,SW,216,0.0,1.0,81,0.00,,,0.00,meteohub,2013-01-14 11:52:00,
2013-01-14 05:02:00,-2.2,-6.5,30.46,SW,216,0.0,1.0,81,0.00,,,0.00,meteohub,2013-01-14 12:02:00,
2013-01-14 05:12:00,-2.4,-6.5,30.46,SW,216,0.0,0.0,82,0.00,,,0.00,meteohub,2013-01-14 12:12:00,
2013-01-14 05:22:00,-2.6,-6.7,30.46,SW,216,0.0,0.0,82,0.00,,,0.00,meteohub,2013-01-14 12:22:00,
2013-01-14 05:32:00,-2.6,-6.7,30.47,SW,216,0.0,0.0,82,0.00,,,0.00,meteohub,2013-01-14 12:32:00,
2013-01-14 05:42:00,-2.6,-6.5,30.46,SW,216,0.0,0.0,83,0.00,,,0.00,meteohub,2013-01-14 12:42:00,
2013-01-14 05:52:00,-2.7,-6.9,30.47,SW,216,0.0,1.0,82,0.00,,,0.00,meteohub,2013-01-14 12:52:00,
2013-01-14 06:02:00,-3.3,-7.4,30.48,SW,216,0.0,0.0,82,0.00,,,0.00,meteohub,2013-01-14 13:02:00,
2013-01-14 06:12:00,-3.6,-7.8,30.48,SW,216,0.0,2.0,82,0.00,,,0.00,meteohub,2013-01-14 13:12:00,
2013-01-14 06:22:00,-3.8,-8.0,30.48,SW,216,0.0,2.0,82,0.00,,,0.00,meteohub,2013-01-14 13:22:00,
2013-01-14 06:32:00,-3.6,-7.8,30.49,SW,216,0.0,1.0,82,0.00,,,0.00,meteohub,2013-01-14 13:32:00,
2013-01-14 06:42:00,-3.8,-8.0,30.49,SW,216,0.0,0.0,82,0.00,,,0.00,meteohub,2013-01-14 13:42:00,
2013-01-14 06:52:00,-4.2,-8.5,30.50,SW,216,0.0,0.0,81,0.00,,,0.00,meteohub,2013-01-14 13:52:00,
2013-01-14 07:02:00,-4.2,-8.3,30.50,SW,216,0.0,0.0,82,0.00,,,0.00,meteohub,2013-01-14 14:02:00,
2013-01-14 07:12:00,-4.2,-8.3,30.51,SW,216,0.0,0.0,82,0.00,,,0.00,meteohub,2013-01-14 14:12:00,
2013-01-14 07:22:00,-4.4,-8.5,30.51,SW,216,0.0,0.0,82,0.00,,,0.00,meteohub,2013-01-14 14:22:00,
2013-01-14 07:32:00,-4.2,-8.0,30.50,SW,216,0.0,2.0,83,0.00,,,0.00,meteohub,2013-01-14 14:32:00,
2013-01-14 07:42:00,-4.2,-8.0,30.51,SW,216,0.0,2.0,83,0.00,,,0.00,meteohub,2013-01-14 14:42:00,
2013-01-14 07:52:00,-3.8,-8.0,30.51,SW,216,0.0,0.0,82,0.00,,,0.00,meteohub,2013-01-14 14:52:00,
2013-01-14 08:02:00,-3.8,-8.1,30.52,SW,216,0.0,0.0,81,0.00,,,0.00,meteohub,2013-01-14 15:02:00,
2013-01-14 08:12:00,-3.6,-7.8,30.51,SW,216,0.0,0.0,82,0.00,,,0.00,meteohub,2013-01-14 15:12:00,
2013-01-14 08:22:00,-3.1,-6.9,30.51,SW,216,0.0,0.0,83,0.00,,,0.00,meteohub,2013-01-14 15:22:00,
2013-01-14 08:32:00,-2.6,-6.5,30.52,SW,216,0.0,0.0,83,0.00,,,0.00,meteohub,2013-01-14 15:32:00,
2013-01-14 08:42:00,-1.7,-5.6,30.52,SW,216,0.0,0.0,83,0.00,,,0.00,meteohub,2013-01-14 15:42:00,
2013-01-14 08:52:00,-0.9,-5.1,30.51,SW,216,0.0,0.0,82,0.00,,,0.00,meteohub,2013-01-14 15:52:00,
2013-01-14 09:02:00,-0.6,-5.1,30.51,SW,216,0.0,1.0,81,0.00,,,0.00,meteohub,2013-01-14 16:02:00,
2013-01-14 09:12:00,0.3,-4.2,30.52,SW,216,0.0,1.0,81,0.00,,,0.00,meteohub,2013-01-14 16:12:00,
2013-01-14 09:22:00,1.2,-3.8,30.52,SW,216,0.0,2.0,79,0.00,,,0.00,meteohub,2013-01-14 16:22:00,
2013-01-14 09:32:00,1.8,-3.5,30.52,SW,216,1.0,2.0,78,0.00,,,0.00,meteohub,2013-01-14 16:32:00,
2013-01-14 09:42:00,1.8,-3.8,30.52,SW,216,2.0,4.0,77,0.00,,,0.00,meteohub,2013-01-14 16:42:00,
2013-01-14 09:52:00,1.8,-3.8,30.51,SW,216,2.0,3.0,77,0.00,,,0.00,meteohub,2013-01-14 16:52:00,
2013-01-14 10:12:00,4.8,-1.3,30.51,SW,216,0.0,3.0,75,0.00,,,0.00,meteohub,2013-01-14 17:12:00,
2013-01-14 10:22:00,5.7,-1.7,30.50,SW,216,3.0,3.0,71,0.00,,,0.00,meteohub,2013-01-14 17:22:00,
2013-01-14 10:32:00,5.5,-1.8,30.50,SW,216,4.0,5.0,71,0.00,,,0.00,meteohub,2013-01-14 17:32:00,
2013-01-14 10:42:00,5.5,-1.5,30.49,SW,214,0.0,6.0,72,0.00,,,0.00,meteohub,2013-01-14 17:42:00,
2013-01-14 10:52:00,6.4,-0.4,30.48,SW,214,3.0,6.0,73,0.00,,,0.00,meteohub,2013-01-14 17:52:00,
2013-01-14 11:02:00,6.6,-0.8,30.48,South,178,2.0,9.0,71,0.00,,,0.00,meteohub,2013-01-14 18:02:00,
2013-01-14 11:12:00,6.8,-0.2,30.47,South,178,1.0,9.0,72,0.00,,,0.00,meteohub,2013-01-14 18:12:00,
2013-01-14 11:22:00,6.8,-0.2,30.47,South,178,2.0,6.0,72,0.00,,,0.00,meteohub,2013-01-14 18:22:00,
2013-01-14 11:32:00,6.6,-0.2,30.45,South,178,3.0,6.0,73,0.00,,,0.00,meteohub,2013-01-14 18:32:00,
2013-01-14 11:42:00,6.8,-0.6,30.45,South,178,3.0,5.0,71,0.00,,,0.00,meteohub,2013-01-14 18:42:00,
2013-01-14 11:52:00,7.0,-0.4,30.44,South,178,0.0,6.0,71,0.00,,,0.00,meteohub,2013-01-14 18:52:00,
2013-01-14 12:02:00,6.8,-0.6,30.43,South,178,1.0,5.0,71,0.00,,,0.00,meteohub,2013-01-14 19:02:00,
2013-01-14 12:12:00,7.0,-0.2,30.43,South,178,3.0,5.0,72,0.00,,,0.00,meteohub,2013-01-14 19:12:00,
2013-01-14 12:22:00,7.2,-0.6,30.42,South,178,1.0,5.0,70,0.00,,,0.00,meteohub,2013-01-14 19:22:00,
2013-01-14 12:32:00,7.7,-0.4,30.42,South,178,1.0,2.0,69,0.00,,,0.00,meteohub,2013-01-14 19:32:00,
2013-01-14 12:42:00,7.7,0.0,30.41,South,178,1.0,4.0,70,0.00,,,0.00,meteohub,2013-01-14 19:42:00,
2013-01-14 12:52:00,8.1,0.0,30.41,South,178,0.0,4.0,69,0.00,,,0.00,meteohub,2013-01-14 19:52:00,
2013-01-14 13:02:00,8.1,0.0,30.40,South,178,0.0,3.0,69,0.00,,,0.00,meteohub,2013-01-14 20:02:00,
2013-01-14 13:12:00,9.3,1.2,30.40,South,178,2.0,3.0,69,0.00,,,0.00,meteohub,2013-01-14 20:12:00,
2013-01-14 13:22:00,10.6,2.1,30.40,South,178,0.0,3.0,68,0.00,,,0.00,meteohub,2013-01-14 20:22:00,
2013-01-14 13:32:00,11.3,2.5,30.40,South,178,0.0,4.0,67,0.00,,,0.00,meteohub,2013-01-14 20:32:00,
2013-01-14 13:42:00,12.0,3.6,30.40,South,178,1.0,5.0,68,0.00,,,0.00,meteohub,2013-01-14 20:42:00,
2013-01-14 13:52:00,12.9,3.7,30.40,South,178,1.0,5.0,66,0.00,,,0.00,meteohub,2013-01-14 20:52:00,
2013-01-14 14:02:00,13.3,3.7,30.40,South,178,5.0,7.0,65,0.00,,,0.00,meteohub,2013-01-14 21:02:00,
2013-01-14 14:12:00,13.3,3.4,30.40,South,178,4.0,9.0,64,0.00,,,0.00,meteohub,2013-01-14 21:12:00,
2013-01-14 14:22:00,12.6,2.7,30.40,South,178,4.0,8.0,64,0.00,,,0.00,meteohub,2013-01-14 21:22:00,
2013-01-14 14:32:00,12.4,2.5,30.41,South,178,3.0,6.0,64,0.00,,,0.00,meteohub,2013-01-14 21:32:00,
2013-01-14 14:42:00,11.8,2.3,30.41,South,178,3.0,6.0,65,0.00,,,0.00,meteohub,2013-01-14 21:42:00,
2013-01-14 14:52:00,12.0,1.8,30.41,South,178,2.0,6.0,63,0.00,,,0.00,meteohub,2013-01-14 21:52:00,
2013-01-14 15:02:00,11.8,1.8,30.41,South,178,4.0,9.0,63,0.00,,,0.00,meteohub,2013-01-14 22:02:00,
2013-01-14 15:12:00,11.5,1.8,30.42,South,181,6.0,11.0,64,0.00,,,0.00,meteohub,2013-01-14 22:12:00,
2013-01-14 15:22:00,10.8,0.7,30.43,South,184,5.0,9.0,63,0.00,,,0.00,meteohub,2013-01-14 22:22:00,
2013-01-14 15:32:00,10.4,0.7,30.43,South,187,7.0,11.0,64,0.00,,,0.00,meteohub,2013-01-14 22:32:00,
2013-01-14 15:42:00,11.5,1.4,30.43,South,190,10.0,12.0,63,0.00,,,0.00,meteohub,2013-01-14 22:42:00,
2013-01-14 15:52:00,12.0,1.2,30.43,South,189,7.0,12.0,61,0.00,,,0.00,meteohub,2013-01-14 22:52:00,
2013-01-14 16:02:00,11.8,1.0,30.44,South,181,12.0,16.0,61,0.00,,,0.00,meteohub,2013-01-14 23:02:00,
2013-01-14 16:12:00,11.5,0.7,30.44,South,187,9.0,14.0,61,0.00,,,0.00,meteohub,2013-01-14 23:12:00,
2013-01-14 16:22:00,10.9,0.1,30.44,South,171,7.0,14.0,61,0.00,,,0.00,meteohub,2013-01-14 23:22:00,
2013-01-14 16:32:00,10.2,-0.2,30.45,SSE,164,7.0,12.0,62,0.00,,,0.00,meteohub,2013-01-14 23:32:00,
2013-01-14 16:42:00,9.0,-0.8,30.45,SSE,163,7.0,12.0,64,0.00,,,0.00,meteohub,2013-01-14 23:42:00,
2013-01-14 16:52:00,8.2,-0.8,30.45,South,174,7.0,14.0,66,0.00,,,0.00,meteohub,2013-01-14 23:52:00,
2013-01-14 17:02:00,7.9,-1.1,30.46,South,174,4.0,14.0,66,0.00,,,0.00,meteohub,2013-01-15 00:02:00,
2013-01-14 17:12:00,7.7,-1.7,30.46,South,174,3.0,9.0,65,0.00,,,0.00,meteohub,2013-01-15 00:12:00,
2013-01-14 17:22:00,7.2,-2.2,30.47,South,174,2.0,9.0,65,0.00,,,0.00,meteohub,2013-01-15 00:22:00,
2013-01-14 17:32:00,6.6,-2.9,30.47,South,174,0.0,5.0,64,0.00,,,0.00,meteohub,2013-01-15 00:32:00,
2013-01-14 17:42:00,5.9,-4.4,30.48,South,174,0.0,5.0,62,0.00,,,0.00,meteohub,2013-01-15 00:42:00,
2013-01-14 17:52:00,5.2,-4.7,30.48,South,174,2.0,3.0,63,0.00,,,0.00,meteohub,2013-01-15 00:52:00,
2013-01-14 18:02:00,6.1,-7.1,30.49,WSW,237,6.0,8.0,54,0.00,,,0.00,meteohub,2013-01-15 01:02:00,
2013-01-14 18:12:00,7.3,-7.4,30.49,WSW,240,5.0,13.0,50,0.00,,,0.00,meteohub,2013-01-15 01:12:00,
2013-01-14 18:22:00,7.3,-7.8,30.49,WSW,243,5.0,13.0,49,0.00,,,0.00,meteohub,2013-01-15 01:22:00,
2013-01-14 18:32:00,7.2,-7.2,30.49,WSW,243,4.0,10.0,51,0.00,,,0.00,meteohub,2013-01-15 01:32:00,
2013-01-14 18:42:00,7.2,-7.2,30.50,WSW,244,1.0,10.0,51,0.00,,,0.00,meteohub,2013-01-15 01:42:00,
2013-01-14 18:52:00,7.0,-6.9,30.51,WSW,245,2.0,11.0,52,0.00,,,0.00,meteohub,2013-01-15 01:52:00,
2013-01-14 19:02:00,6.3,-7.6,30.51,WSW,245,2.0,11.0,52,0.00,,,0.00,meteohub,2013-01-15 02:02:00,
2013-01-14 19:12:00,5.4,-7.6,30.51,WSW,247,6.0,7.0,54,0.00,,,0.00,meteohub,2013-01-15 02:12:00,
2013-01-14 19:22:00,5.4,-7.6,30.52,WSW,251,3.0,8.0,54,0.00,,,0.00,meteohub,2013-01-15 02:22:00,
2013-01-14 19:32:00,5.4,-7.6,30.52,West,278,6.0,10.0,54,0.00,,,0.00,meteohub,2013-01-15 02:32:00,
2013-01-14 19:42:00,5.2,-8.1,30.52,WNW,282,6.0,10.0,53,0.00,,,0.00,meteohub,2013-01-15 02:42:00,
2013-01-14 19:52:00,5.2,-7.4,30.52,WNW,289,6.0,10.0,55,0.00,,,0.00,meteohub,2013-01-15 02:52:00,
2013-01-14 20:02:00,5.2,-7.8,30.52,WNW,289,5.0,11.0,54,0.00,,,0.00,meteohub,2013-01-15 03:02:00,
2013-01-14 20:12:00,4.8,-8.1,30.53,WNW,289,4.0,10.0,54,0.00,,,0.00,meteohub,2013-01-15 03:12:00,
2013-01-14 20:22:00,4.5,-8.1,30.52,WNW,289,3.0,8.0,55,0.00,,,0.00,meteohub,2013-01-15 03:22:00,
2013-01-14 20:32:00,4.3,-8.3,30.53,WNW,289,3.0,7.0,55,0.00,,,0.00,meteohub,2013-01-15 03:32:00,
2013-01-14 20:42:00,3.7,-8.9,30.53,WNW,291,6.0,6.0,55,0.00,,,0.00,meteohub,2013-01-15 03:42:00,
2013-01-14 20:52:00,3.2,-9.0,30.52,WNW,294,5.0,8.0,56,0.00,,,0.00,meteohub,2013-01-15 03:52:00,
2013-01-14 21:02:00,3.6,-8.7,30.52,WNW,295,3.0,8.0,56,0.00,,,0.00,meteohub,2013-01-15 04:02:00,
2013-01-14 21:12:00,3.0,-9.0,30.52,WNW,296,7.0,7.0,56,0.00,,,0.00,meteohub,2013-01-15 04:12:00,
2013-01-14 21:22:00,3.0,-9.6,30.52,NW,310,4.0,10.0,55,0.00,,,0.00,meteohub,2013-01-15 04:22:00,
2013-01-14 21:32:00,2.1,-9.2,30.52,NW,310,5.0,5.0,58,0.00,,,0.00,meteohub,2013-01-15 04:32:00,
2013-01-14 21:42:00,1.8,-9.6,30.53,NW,310,2.0,6.0,58,0.00,,,0.00,meteohub,2013-01-15 04:42:00,
2013-01-14 21:52:00,1.6,-10.5,30.52,NW,310,2.0,3.0,56,0.00,,,0.00,meteohub,2013-01-15 04:52:00,
2013-01-14 22:02:00,0.7,-10.7,30.52,NW,310,2.0,2.0,58,0.00,,,0.00,meteohub,2013-01-15 05:02:00,
2013-01-14 22:12:00,0.3,-10.3,30.52,NW,310,0.0,3.0,60,0.00,,,0.00,meteohub,2013-01-15 05:12:00,
2013-01-14 22:22:00,-0.6,-10.8,30.52,NW,310,3.0,3.0,61,0.00,,,0.00,meteohub,2013-01-15 05:22:00,
2013-01-14 22:32:00,-0.6,-10.1,30.52,NW,310,2.0,7.0,63,0.00,,,0.00,meteohub,2013-01-15 05:32:00,
2013-01-14 22:42:00,-0.4,-9.9,30.52,NW,310,4.0,7.0,63,0.00,,,0.00,meteohub,2013-01-15 05:42:00,
2013-01-14 22:52:00,-0.4,-10.3,30.52,NW,310,2.0,6.0,62,0.00,,,0.00,meteohub,2013-01-15 05:52:00,
2013-01-14 23:02:00,-0.8,-10.3,30.52,NW,310,0.0,6.0,63,0.00,,,0.00,meteohub,2013-01-15 06:02:00,
2013-01-14 23:12:00,-1.1,-10.7,30.53,NW,310,6.0,6.0,63,0.00,,,0.00,meteohub,2013-01-15 06:12:00,
2013-01-14 23:22:00,-0.9,-10.5,30.53,NW,310,2.0,8.0,63,0.00,,,0.00,meteohub,2013-01-15 06:22:00,
2013-01-14 23:32:00,-0.4,-10.3,30.53,NW,310,1.0,7.0,62,0.00,,,0.00,meteohub,2013-01-15 06:32:00,
2013-01-14 23:42:00,-0.6,-11.2,30.53,NW,310,2.0,4.0,60,0.00,,,0.00,meteohub,2013-01-15 06:42:00,
2013-01-14 23:52:00,-1.5,-11.7,30.53,NW,310,2.0,4.0,61,0.00,,,0.00,meteohub,2013-01-15 06:52:00,